M I D A S
Marine Information and Data Acquisition System
Tripno 455 of the Zeeleeuw from 2003-03-25 09:09:30 to 2003-03-25 17:48:48
Back to CruiseResearch ActivitiesStationsMapUnderway DataData graphs

EquipmentUnitsComments
TimeDGPSUTC
LatitudeDGPSDM.mWGS84
LongitudeDGPSDM.mWGS84
SpeedMeteo Stationm/sRelative wind speed
DirectionMeteo StationdegRelative wind direction
TemperatureMeteo Stationdeg CelciusAir temperature
PressureMeteo StationPaAtmospheric pressure
HumidityMeteo Station%Relative humidity
Missing or incorrect values are displayed as -999
Metereological data collected by the RV Zeeleeuw from 2003-03-25 09:09:30 to 2003-03-25 17:48:48
                                                                                    Next 1000 lines
Time Latitude Longitude Speed Direction Temperature Pressure Humidity
2003-03-25 09:09:39 51°13.601 2°56.103 1.2 115 10.3 102370 79
2003-03-25 09:09:43 51°13.601 2°56.103 1.6 120 10.3 102370 79
2003-03-25 09:09:49 51°13.601 2°56.103 1.4 111 10.4 102370 79
2003-03-25 09:09:53 51°13.601 2°56.102 1.2 115 10.4 102370 79
2003-03-25 09:09:59 51°13.601 2°56.103 0.4 110 10.4 102370 79
2003-03-25 09:10:03 51°13.601 2°56.102 0.2 186 10.4 102370 79
2003-03-25 09:10:09 51°13.601 2°56.102 1.1 168 10.4 102370 79
2003-03-25 09:10:13 51°13.601 2°56.102 1.4 163 10.4 102370 79
2003-03-25 09:10:18 51°13.601 2°56.102 1 148 10.4 102370 79
2003-03-25 09:10:24 51°13.601 2°56.102 1.3 174 10.4 102370 79
2003-03-25 09:10:29 51°13.601 2°56.102 1.1 167 10.4 102370 79
2003-03-25 09:10:35 51°13.6 2°56.102 0.8 184 10.4 102370 79
2003-03-25 09:10:39 51°13.6 2°56.102 0.7 189 10.4 102370 79
2003-03-25 09:10:43 51°13.6 2°56.102 0.6 160 10.4 102370 79
2003-03-25 09:10:49 51°13.601 2°56.101 1 175 10.5 102370 79
2003-03-25 09:10:52 51°13.601 2°56.101 1.4 160 10.5 102370 79
2003-03-25 09:10:59 51°13.602 2°56.099 1.8 161 10.5 102370 79
2003-03-25 09:11:04 51°13.602 2°56.096 1.8 149 10.5 102370 79
2003-03-25 09:11:09 51°13.603 2°56.093 2.1 138 10.5 102370 79
2003-03-25 09:11:13 51°13.604 2°56.091 2.4 138 10.5 102370 79
2003-03-25 09:11:20 51°13.606 2°56.085 2.9 152 10.5 102370 79
2003-03-25 09:11:25 51°13.607 2°56.08 3 144 10.5 102370 79
2003-03-25 09:11:30 51°13.609 2°56.075 2.5 156 10.5 102370 79
2003-03-25 09:11:35 51°13.611 2°56.07 2.4 150 10.5 102370 79
2003-03-25 09:11:40 51°13.612 2°56.064 3.1 143 10.5 102370 79
2003-03-25 09:11:45 51°13.614 2°56.057 2.5 152 10.5 102370 79
2003-03-25 09:11:50 51°13.616 2°56.051 2.1 159 10.5 102370 78
2003-03-25 09:11:55 51°13.618 2°56.044 2.3 158 10.5 102370 78
2003-03-25 09:12:00 51°13.62 2°56.037 3.4 158 10.5 102370 78
2003-03-25 09:12:05 51°13.622 2°56.03 3.1 155 10.5 102370 78
2003-03-25 09:12:10 51°13.623 2°56.023 2.4 164 10.4 102370 78
2003-03-25 09:12:15 51°13.625 2°56.016 2.6 152 10.4 102370 78
2003-03-25 09:12:20 51°13.627 2°56.008 1.6 165 10.4 102370 78
2003-03-25 09:12:25 51°13.629 2°56.001 2.8 157 10.4 102370 78
2003-03-25 09:12:30 51°13.632 2°55.993 3.3 157 10.3 102370 78
2003-03-25 09:12:35 51°13.634 2°55.985 3.2 160 10.3 102370 78
2003-03-25 09:12:40 51°13.636 2°55.976 3.2 171 10.3 102370 78
2003-03-25 09:12:45 51°13.638 2°55.968 3 159 10.3 102370 78
2003-03-25 09:12:49 51°13.64 2°55.961 3.3 159 10.3 102370 78
2003-03-25 09:12:55 51°13.642 2°55.951 2.6 169 10.3 102370 78
2003-03-25 09:13:00 51°13.645 2°55.942 2.3 162 10.3 102370 78
2003-03-25 09:13:05 51°13.647 2°55.933 3.1 161 10.3 102370 78
2003-03-25 09:13:10 51°13.649 2°55.924 2.8 173 10.2 102370 78
2003-03-25 09:13:15 51°13.651 2°55.915 2.8 154 10.2 102370 78
2003-03-25 09:13:20 51°13.653 2°55.906 3.3 154 10.2 102370 78
2003-03-25 09:13:25 51°13.656 2°55.897 3.5 156 10.2 102370 78
2003-03-25 09:13:30 51°13.658 2°55.887 4.2 152 10.1 102370 78
2003-03-25 09:13:35 51°13.66 2°55.879 4 153 10.1 102370 78
2003-03-25 09:13:40 51°13.662 2°55.87 3.9 147 10.1 102370 78
2003-03-25 09:13:45 51°13.663 2°55.862 4.1 145 10.1 102370 78
2003-03-25 09:13:50 51°13.665 2°55.854 4 146 10.1 102370 78
2003-03-25 09:13:55 51°13.666 2°55.845 3.8 146 10.1 102370 78
2003-03-25 09:14:00 51°13.668 2°55.837 4.2 143 10 102370 78
2003-03-25 09:14:05 51°13.669 2°55.828 3.5 143 10 102370 78
2003-03-25 09:14:09 51°13.67 2°55.821 3.8 143 10 102370 79
2003-03-25 09:14:15 51°13.672 2°55.81 3.9 143 10 102370 79
2003-03-25 09:14:20 51°13.673 2°55.802 3.7 141 10 102370 79
2003-03-25 09:14:25 51°13.674 2°55.794 3 130 10 102370 79
2003-03-25 09:14:29 51°13.674 2°55.788 2.8 130 9.9 102370 79
2003-03-25 09:14:33 51°13.674 2°55.783 3.3 134 9.9 102370 79
2003-03-25 09:14:39 51°13.674 2°55.775 3.3 125 9.9 102370 79
2003-03-25 09:14:43 51°13.674 2°55.77 2.6 134 9.9 102370 79
2003-03-25 09:14:49 51°13.673 2°55.763 2.7 130 9.9 102370 79
2003-03-25 09:14:53 51°13.673 2°55.758 2.3 126 9.9 102370 79
2003-03-25 09:14:59 51°13.673 2°55.752 2.1 124 9.9 102370 79
2003-03-25 09:15:03 51°13.673 2°55.75 2.2 114 9.9 102370 79
2003-03-25 09:15:09 51°13.673 2°55.748 2 113 9.9 102370 79
2003-03-25 09:15:13 51°13.673 2°55.747 1.8 107 9.9 102370 79
2003-03-25 09:15:19 51°13.673 2°55.746 2.6 94 9.8 102370 80
2003-03-25 09:15:23 51°13.672 2°55.745 2.1 88 9.8 102370 80
2003-03-25 09:15:29 51°13.672 2°55.745 2.8 89 9.8 102370 80
2003-03-25 09:15:33 51°13.673 2°55.746 2.2 72 9.8 102370 80
2003-03-25 09:15:39 51°13.674 2°55.747 2.1 69 9.8 102370 80
2003-03-25 09:15:43 51°13.674 2°55.748 2.5 62 9.8 102370 80
2003-03-25 09:15:49 51°13.676 2°55.75 2.7 56 9.8 102370 80
2003-03-25 09:15:53 51°13.677 2°55.752 2.9 51 9.8 102370 80
2003-03-25 09:15:58 51°13.679 2°55.754 3.2 42 9.8 102370 80
2003-03-25 09:16:04 51°13.682 2°55.758 3.1 39 9.8 102370 80
2003-03-25 09:16:09 51°13.685 2°55.761 4.2 23 9.9 102370 81
2003-03-25 09:16:13 51°13.687 2°55.763 3.3 28 9.9 102370 81
2003-03-25 09:16:19 51°13.692 2°55.766 3.5 23 9.9 102370 81
2003-03-25 09:16:24 51°13.695 2°55.767 3.5 18 9.9 102370 81
2003-03-25 09:16:29 51°13.699 2°55.768 3.4 13 9.9 102370 81
2003-03-25 09:16:33 51°13.702 2°55.768 3.4 12 9.9 102370 81
2003-03-25 09:16:39 51°13.707 2°55.766 3.4 2 9.9 102360 81
2003-03-25 09:16:44 51°13.712 2°55.763 3.5 356 9.9 102360 81
2003-03-25 09:16:49 51°13.716 2°55.759 3.3 352 9.9 102360 81
2003-03-25 09:16:53 51°13.719 2°55.756 3.5 344 9.9 102360 81
2003-03-25 09:16:59 51°13.723 2°55.75 3.9 352 9.9 102370 81
2003-03-25 09:17:03 51°13.726 2°55.746 3.6 354 9.9 102370 81
2003-03-25 09:17:09 51°13.731 2°55.739 3.8 353 9.9 102370 81
2003-03-25 09:17:13 51°13.734 2°55.734 4.1 351 9.9 102370 81
2003-03-25 09:17:18 51°13.739 2°55.727 3.8 5 9.9 102370 80
2003-03-25 09:17:23 51°13.743 2°55.72 3.6 3 9.9 102370 80
2003-03-25 09:17:29 51°13.75 2°55.712 4.4 351 9.9 102370 80
2003-03-25 09:17:33 51°13.755 2°55.706 4.5 347 9.9 102370 80
2003-03-25 09:17:39 51°13.763 2°55.697 5.3 350 9.9 102360 80
2003-03-25 09:17:44 51°13.77 2°55.689 4.7 350 9.9 102360 80
2003-03-25 09:17:49 51°13.777 2°55.681 5 11 9.9 102370 80
2003-03-25 09:17:54 51°13.784 2°55.673 5.5 353 9.9 102370 80
2003-03-25 09:17:59 51°13.792 2°55.666 5.1 357 9.9 102360 80
2003-03-25 09:18:01 51°13.795 2°55.664 5.4 352 9.9 102360 80
2003-03-25 09:18:09 51°13.809 2°55.653 5.3 353 9.9 102360 80
2003-03-25 09:18:13 51°13.816 2°55.648 5 357 9.9 102360 80
2003-03-25 09:18:19 51°13.827 2°55.64 6 358 9.8 102360 80
2003-03-25 09:18:23 51°13.834 2°55.635 4.9 353 9.8 102360 80
2003-03-25 09:18:29 51°13.845 2°55.628 5.1 356 9.8 102360 80
2003-03-25 09:18:33 51°13.853 2°55.623 5.8 2 9.8 102360 80
2003-03-25 09:18:39 51°13.865 2°55.613 6.3 358 9.8 102360 80
2003-03-25 09:18:43 51°13.873 2°55.606 6.3 360 9.8 102360 80
2003-03-25 09:18:49 51°13.885 2°55.595 6.3   9.8 102360 80
2003-03-25 09:18:53 51°13.893 2°55.589 6 359 9.8 102360 80
2003-03-25 09:18:59 51°13.905 2°55.58 5.9 358 9.8 102360 80
2003-03-25 09:19:04 51°13.915 2°55.572 5.7 355 9.8 102360 80
2003-03-25 09:19:09 51°13.925 2°55.565 5.8 360 9.7 102360 80
2003-03-25 09:19:13 51°13.932 2°55.559 5.5 3 9.7 102360 80
2003-03-25 09:19:19 51°13.944 2°55.55 5.8 2 9.7 102360 80
2003-03-25 09:19:24 51°13.954 2°55.542 5.8 6 9.7 102360 80
2003-03-25 09:19:29 51°13.964 2°55.536 5.6 6 9.7 102360 80
2003-03-25 09:19:32 51°13.97 2°55.531 5.8 8 9.7 102360 80
2003-03-25 09:19:38 51°13.983 2°55.522 5.6 5 9.6 102360 80
2003-03-25 09:19:43 51°13.994 2°55.513 5.6 9 9.6 102360 80
2003-03-25 09:19:49 51°14.006 2°55.503 5.7 359 9.6 102360 81
2003-03-25 09:19:53 51°14.014 2°55.497 6.1 3 9.6 102360 81
2003-03-25 09:19:59 51°14.026 2°55.488 5.2 358 9.6 102360 81
2003-03-25 09:20:03 51°14.034 2°55.482 6.5 3 9.6 102360 81
2003-03-25 09:20:09 51°14.046 2°55.472 6 360 9.6 102360 81
2003-03-25 09:20:12 51°14.052 2°55.467 6.1 2 9.6 102360 81
2003-03-25 09:20:19 51°14.066 2°55.456 6.5 6 9.6 102360 81
2003-03-25 09:20:24 51°14.076 2°55.449 6.3 9 9.6 102360 81
2003-03-25 09:20:29 51°14.086 2°55.441 6.5 11 9.6 102360 81
2003-03-25 09:20:33 51°14.094 2°55.435 6.4 10 9.6 102360 81
2003-03-25 09:20:39 51°14.106 2°55.427 6.5 16 9.5 102360 81
2003-03-25 09:20:44 51°14.117 2°55.421 7.1 11 9.5 102360 81
2003-03-25 09:20:49 51°14.127 2°55.415 6.3 9 9.5 102360 81
2003-03-25 09:20:53 51°14.136 2°55.41 6.2 16 9.5 102360 81
2003-03-25 09:20:59 51°14.149 2°55.401 6.5 14 9.5 102370 81
2003-03-25 09:21:03 51°14.157 2°55.394 5.9 19 9.5 102370 81
2003-03-25 09:21:09 51°14.169 2°55.384 5.8 18 9.5 102370 81
2003-03-25 09:21:14 51°14.18 2°55.375 6 21 9.5 102370 81
2003-03-25 09:21:19 51°14.191 2°55.366 5.8 14 9.4 102360 81
2003-03-25 09:21:23 51°14.2 2°55.359 6 6 9.4 102360 81
2003-03-25 09:21:29 51°14.212 2°55.345 5.7 11 9.4 102360 81
2003-03-25 09:21:33 51°14.22 2°55.335 6.3 10 9.4 102360 81
2003-03-25 09:21:39 51°14.232 2°55.32 5.9 7 9.4 102370 81
2003-03-25 09:21:44 51°14.241 2°55.306 5.9 2 9.4 102370 81
2003-03-25 09:21:49 51°14.25 2°55.292 6.2 7 9.3 102370 82
2003-03-25 09:21:53 51°14.256 2°55.279 5.9 5 9.3 102370 82
2003-03-25 09:21:59 51°14.266 2°55.259 5.8 359 9.3 102370 82
2003-03-25 09:22:04 51°14.274 2°55.242 6.2 6 9.3 102370 82
2003-03-25 09:22:09 51°14.283 2°55.226 6.2 7 9.3 102370 82
2003-03-25 09:22:13 51°14.29 2°55.213 5.9 5 9.3 102370 82
2003-03-25 09:22:19 51°14.301 2°55.193 6.1 7 9.2 102370 82
2003-03-25 09:22:24 51°14.31 2°55.177 5.9 9 9.2 102370 82
2003-03-25 09:22:29 51°14.319 2°55.161 5.5 1 9.2 102370 82
2003-03-25 09:22:33 51°14.326 2°55.148 6.2 3 9.2 102370 82
2003-03-25 09:22:39 51°14.337 2°55.128 5.8 9 9.2 102370 82
2003-03-25 09:22:44 51°14.346 2°55.112 6.2 9 9.2 102370 82
2003-03-25 09:22:49 51°14.356 2°55.098 6 7 9.1 102370 82
2003-03-25 09:22:53 51°14.365 2°55.087 6 7 9.1 102370 82
2003-03-25 09:22:59 51°14.378 2°55.071 5.9 9 9.1 102370 82
2003-03-25 09:23:03 51°14.387 2°55.061 5.9 7 9.1 102370 82
2003-03-25 09:23:09 51°14.4 2°55.045 5.9 11 9 102370 83
2003-03-25 09:23:12 51°14.406 2°55.037 5.7 11 9 102370 83
2003-03-25 09:23:18 51°14.419 2°55.021 5.9 14 9 102370 83
2003-03-25 09:23:24 51°14.432 2°55.006 6 12 9 102370 83
2003-03-25 09:23:29 51°14.443 2°54.995 5.8 12 9 102370 83
2003-03-25 09:23:33 51°14.452 2°54.986 5.9 13 9 102370 83
2003-03-25 09:23:39 51°14.465 2°54.972 6.2 13 9 102370 83
2003-03-25 09:23:43 51°14.474 2°54.963 6.6 15 9 102370 83
2003-03-25 09:23:49 51°14.488 2°54.95 6.1 14 9 102370 83
2003-03-25 09:23:53 51°14.497 2°54.94 6.3 15 9 102370 83
2003-03-25 09:23:59 51°14.511 2°54.927 6.4 14 9 102370 84
2003-03-25 09:24:03 51°14.52 2°54.918 6.5 14 9 102370 84
2003-03-25 09:24:09 51°14.534 2°54.904 6.3 15 9 102370 84
2003-03-25 09:24:12 51°14.541 2°54.897 6.2 15 9 102370 84
2003-03-25 09:24:18 51°14.555 2°54.883 6.4 15 9 102370 84
2003-03-25 09:24:24 51°14.569 2°54.869 6.3 17 9 102370 84
2003-03-25 09:24:29 51°14.581 2°54.859 6.6 16 8.9 102370 84
2003-03-25 09:24:33 51°14.59 2°54.85 6.2 16 8.9 102370 84
2003-03-25 09:24:39 51°14.605 2°54.837 6.4 14 8.9 102370 84
2003-03-25 09:24:43 51°14.615 2°54.828 6.8 12 8.9 102370 84
2003-03-25 09:24:49 51°14.63 2°54.815 7.3 17 8.9 102370 84
2003-03-25 09:24:52 51°14.637 2°54.808 7.1 17 8.9 102370 84
2003-03-25 09:24:59 51°14.655 2°54.791 7.1 12 8.9 102370 84
2003-03-25 09:25:03 51°14.665 2°54.78 7.1 12 8.9 102370 84
2003-03-25 09:25:09 51°14.681 2°54.765 7.4 12 8.9 102370 84
2003-03-25 09:25:13 51°14.692 2°54.754 7.3 13 8.9 102370 84
2003-03-25 09:25:19 51°14.709 2°54.738 7.4 12 8.8 102370 84
2003-03-25 09:25:24 51°14.723 2°54.726 7.3 13 8.8 102370 84
2003-03-25 09:25:29 51°14.737 2°54.713 7.4 12 8.8 102370 84
2003-03-25 09:25:33 51°14.749 2°54.704 7.4 11 8.8 102370 84
2003-03-25 09:25:39 51°14.766 2°54.688 7.8 10 8.8 102370 84
2003-03-25 09:25:43 51°14.778 2°54.678 7.5 11 8.8 102370 84
2003-03-25 09:25:49 51°14.796 2°54.661 7.7 11 8.8 102370 84
2003-03-25 09:25:53 51°14.808 2°54.65 7.4 11 8.8 102370 84
2003-03-25 09:25:59 51°14.826 2°54.633 7.4 10 8.8 102370 85
2003-03-25 09:26:04 51°14.841 2°54.62 7.5 12 8.8 102370 85
2003-03-25 09:26:09 51°14.855 2°54.606 7.7 11 8.8 102370 85
2003-03-25 09:26:13 51°14.867 2°54.596 7.4 10 8.8 102370 85
2003-03-25 09:26:19 51°14.885 2°54.579 7.6 12 8.8 102370 85
2003-03-25 09:26:24 51°14.9 2°54.566 7.5 11 8.8 102370 85
2003-03-25 09:26:28 51°14.912 2°54.555 7.5 12 8.8 102370 85
2003-03-25 09:26:33 51°14.927 2°54.542 8 12 8.8 102370 85
2003-03-25 09:26:39 51°14.945 2°54.526 7.7 13 8.8 102370 85
2003-03-25 09:26:43 51°14.957 2°54.515 7.2 11 8.8 102370 85
2003-03-25 09:26:49 51°14.975 2°54.499 7.8 12 8.8 102370 85
2003-03-25 09:26:53 51°14.987 2°54.488 7.7 11 8.8 102370 85
2003-03-25 09:26:59 51°15.005 2°54.472 7.3 12 8.8 102370 85
2003-03-25 09:27:02 51°15.014 2°54.464 8 13 8.8 102370 85
2003-03-25 09:27:09 51°15.035 2°54.445 7.8 13 8.8 102370 85
2003-03-25 09:27:13 51°15.047 2°54.434 7.9 13 8.8 102370 85
2003-03-25 09:27:19 51°15.064 2°54.419 7.5 13 8.8 102370 85
2003-03-25 09:27:23 51°15.076 2°54.409 7.4 12 8.8 102370 85
2003-03-25 09:27:29 51°15.094 2°54.392 7.5 12 8.7 102360 85
2003-03-25 09:27:33 51°15.106 2°54.382 7.7 14 8.7 102360 85
2003-03-25 09:27:39 51°15.124 2°54.365 7.4 12 8.7 102370 85
2003-03-25 09:27:42 51°15.133 2°54.357 7.1 11 8.7 102370 85
2003-03-25 09:27:49 51°15.154 2°54.338 8 12 8.7 102370 85
2003-03-25 09:27:53 51°15.166 2°54.327 7.5 11 8.7 102370 85
2003-03-25 09:27:59 51°15.185 2°54.311 7.3 11 8.7 102360 85
2003-03-25 09:28:03 51°15.197 2°54.3 7.5 13 8.7 102360 85
2003-03-25 09:28:09 51°15.214 2°54.285 7.8 13 8.7 102360 85
2003-03-25 09:28:12 51°15.223 2°54.277 7.7 13 8.7 102360 85
2003-03-25 09:28:19 51°15.245 2°54.259 7.9 11 8.7 102360 85
2003-03-25 09:28:24 51°15.26 2°54.246 7.8 12 8.7 102360 85
2003-03-25 09:28:29 51°15.275 2°54.233 7.8 12 8.7 102360 86
2003-03-25 09:28:33 51°15.287 2°54.223 7.8 11 8.7 102360 86
2003-03-25 09:28:39 51°15.305 2°54.207 7.8 11 8.7 102360 86
2003-03-25 09:28:43 51°15.317 2°54.196 7.9 11 8.7 102360 86
2003-03-25 09:28:49 51°15.334 2°54.18 7.7 11 8.7 102360 86
2003-03-25 09:28:53 51°15.346 2°54.17 8 12 8.7 102360 86
2003-03-25 09:28:59 51°15.364 2°54.153 7.7 10 8.6 102360 86
2003-03-25 09:29:03 51°15.376 2°54.142 7.9 11 8.6 102360 86
2003-03-25 09:29:09 51°15.395 2°54.125 8.5 11 8.6 102360 86
2003-03-25 09:29:12 51°15.404 2°54.116 8.5 11 8.6 102360 86
2003-03-25 09:29:19 51°15.426 2°54.096 8.2 8 8.6 102360 86
2003-03-25 09:29:23 51°15.438 2°54.085 8.5 10 8.6 102360 86
2003-03-25 09:29:29 51°15.457 2°54.068 8.7 11 8.6 102360 86
2003-03-25 09:29:33 51°15.47 2°54.057 8.9 9 8.6 102360 86
2003-03-25 09:29:39 51°15.489 2°54.039 8.6 9 8.6 102360 86
2003-03-25 09:29:43 51°15.503 2°54.028 8.9 9 8.6 102360 86
2003-03-25 09:29:49 51°15.522 2°54.011 8.7 8 8.6 102360 86
2003-03-25 09:29:52 51°15.532 2°54.002 8.3 9 8.6 102360 86
2003-03-25 09:29:59 51°15.556 2°53.982 8.9 10 8.6 102360 86
2003-03-25 09:30:04 51°15.572 2°53.967 8.6 9 8.6 102360 86
2003-03-25 09:30:09 51°15.589 2°53.953 8.7 9 8.6 102360 86
2003-03-25 09:30:13 51°15.603 2°53.941 9 8 8.6 102360 86
2003-03-25 09:30:19 51°15.623 2°53.924 8.8 9 8.6 102360 86
2003-03-25 09:30:24 51°15.64 2°53.909 8.7 8 8.6 102360 86
2003-03-25 09:30:28 51°15.653 2°53.897 9 8 8.6 102360 86
2003-03-25 09:30:33 51°15.671 2°53.882 8.9 8 8.6 102360 86
2003-03-25 09:30:39 51°15.691 2°53.865 9 9 8.6 102360 86
2003-03-25 09:30:44 51°15.708 2°53.849 9.2 7 8.6 102360 86
2003-03-25 09:30:49 51°15.726 2°53.835 9.1 9 8.5 102360 86
2003-03-25 09:30:53 51°15.739 2°53.823 9.3 7 8.5 102360 86
2003-03-25 09:30:59 51°15.76 2°53.805 9.4 7 8.5 102360 86
2003-03-25 09:31:04 51°15.777 2°53.789 9 7 8.5 102360 86
2003-03-25 09:31:09 51°15.793 2°53.774 9.1 8 8.5 102360 86
2003-03-25 09:31:13 51°15.807 2°53.761 9 7 8.5 102360 86
2003-03-25 09:31:19 51°15.828 2°53.743 9.5 7 8.5 102360 86
2003-03-25 09:31:23 51°15.841 2°53.73 9 9 8.5 102360 86
2003-03-25 09:31:29 51°15.861 2°53.712 9.3 6 8.5 102360 86
2003-03-25 09:31:33 51°15.875 2°53.7 9 5 8.5 102360 86
2003-03-25 09:31:39 51°15.896 2°53.681 9.3 6 8.5 102360 86
2003-03-25 09:31:43 51°15.909 2°53.669 9.7 7 8.5 102360 86
2003-03-25 09:31:49 51°15.93 2°53.651 9.8 7 8.4 102360 86
2003-03-25 09:31:53 51°15.943 2°53.639 10 7 8.4 102360 86
2003-03-25 09:31:59 51°15.963 2°53.62 9.6 8 8.4 102360 86
2003-03-25 09:32:04 51°15.98 2°53.605 9.4 7 8.4 102360 86
2003-03-25 09:32:09 51°15.997 2°53.59 9.8 7 8.4 102360 86
2003-03-25 09:32:14 51°16.015 2°53.574 9.5 7 8.4 102360 86
2003-03-25 09:32:19 51°16.032 2°53.559 9.7 7 8.4 102360 86
2003-03-25 09:32:23 51°16.046 2°53.546 9.5 7 8.4 102360 86
2003-03-25 09:32:29 51°16.066 2°53.528 9.7 8 8.4 102360 86
2003-03-25 09:32:33 51°16.08 2°53.516 9.3 6 8.4 102360 86
2003-03-25 09:32:39 51°16.101 2°53.498 9.6 7 8.4 102360 87
2003-03-25 09:32:43 51°16.114 2°53.486 9.7 6 8.4 102360 87
2003-03-25 09:32:49 51°16.135 2°53.467 9.2 7 8.4 102360 87
2003-03-25 09:32:52 51°16.145 2°53.458 9.4 8 8.4 102360 87
2003-03-25 09:32:59 51°16.17 2°53.436 9.7 7 8.4 102360 87
2003-03-25 09:33:04 51°16.187 2°53.42 9.6 7 8.4 102360 87
2003-03-25 09:33:09 51°16.203 2°53.405 9.8 6 8.3 102360 87
2003-03-25 09:33:13 51°16.217 2°53.393 9.6 7 8.3 102360 87
2003-03-25 09:33:19 51°16.237 2°53.375 9.4 8 8.3 102360 87
2003-03-25 09:33:24 51°16.253 2°53.36 9.6 8 8.3 102360 87
2003-03-25 09:33:29 51°16.27 2°53.343 9.3 7 8.3 102360 87
2003-03-25 09:33:33 51°16.284 2°53.33 9.2 8 8.3 102360 87
2003-03-25 09:33:39 51°16.303 2°53.311 9.4 7 8.3 102360 87
2003-03-25 09:33:44 51°16.32 2°53.296 9.7 6 8.3 102360 87
2003-03-25 09:33:48 51°16.334 2°53.284 9.5 7 8.3 102360 87
2003-03-25 09:33:54 51°16.354 2°53.266 9.3 7 8.3 102360 87
2003-03-25 09:33:59 51°16.371 2°53.25 9 8 8.3 102360 87
2003-03-25 09:34:04 51°16.388 2°53.235 9.2 9 8.3 102360 87
2003-03-25 09:34:09 51°16.405 2°53.218 9.2 8 8.3 102360 87
2003-03-25 09:34:13 51°16.418 2°53.206 9 9 8.3 102360 87
2003-03-25 09:34:19 51°16.438 2°53.187 9.6 7 8.3 102360 87
2003-03-25 09:34:23 51°16.452 2°53.175 9.4 9 8.3 102360 87
2003-03-25 09:34:29 51°16.472 2°53.157 9.2 8 8.3 102360 87
2003-03-25 09:34:33 51°16.486 2°53.145 9 7 8.3 102360 87
2003-03-25 09:34:39 51°16.506 2°53.126 9.3 9 8.3 102360 87
2003-03-25 09:34:43 51°16.519 2°53.114 9.2 7 8.3 102360 87
2003-03-25 09:34:49 51°16.54 2°53.096 9.2 8 8.3 102360 87
2003-03-25 09:34:53 51°16.554 2°53.083 9 8 8.3 102360 87
2003-03-25 09:34:58 51°16.571 2°53.067 9.2 7 8.3 102360 87
2003-03-25 09:35:04 51°16.592 2°53.048 9.5 8 8.3 102360 87
2003-03-25 09:35:09 51°16.608 2°53.032 9.8 8 8.3 102360 87
2003-03-25 09:35:13 51°16.622 2°53.019 9.3 8 8.3 102360 87
2003-03-25 09:35:19 51°16.642 2°53.001 9.5 8 8.2 102350 87
2003-03-25 09:35:23 51°16.656 2°52.988 8.9 8 8.2 102350 87
2003-03-25 09:35:29 51°16.676 2°52.969 9.5 9 8.2 102360 87
2003-03-25 09:35:32 51°16.687 2°52.96 9.2 7 8.2 102360 87
2003-03-25 09:35:38 51°16.708 2°52.94 9 6 8.2 102360 87
2003-03-25 09:35:44 51°16.728 2°52.921 9.6 8 8.2 102360 87
2003-03-25 09:35:49 51°16.745 2°52.905 9.2 8 8.2 102360 87
2003-03-25 09:35:53 51°16.759 2°52.893 8.7 9 8.2 102360 87
2003-03-25 09:35:59 51°16.779 2°52.875 8.8 8 8.2 102360 87
2003-03-25 09:36:03 51°16.792 2°52.862 9.1 9 8.2 102360 87
2003-03-25 09:36:09 51°16.812 2°52.845 9.2 7 8.2 102360 87
2003-03-25 09:36:13 51°16.824 2°52.833 8.8 8 8.2 102360 87
2003-03-25 09:36:19 51°16.844 2°52.815 9.1 9 8.2 102360 87
2003-03-25 09:36:23 51°16.857 2°52.803 9 7 8.2 102360 87
2003-03-25 09:36:29 51°16.877 2°52.785 9 9 8.2 102360 88
2003-03-25 09:36:33 51°16.89 2°52.773 8.5 8 8.2 102360 88
2003-03-25 09:36:39 51°16.91 2°52.756 9.6 8 8.2 102360 88
2003-03-25 09:36:44 51°16.927 2°52.741 9 9 8.2 102360 88
2003-03-25 09:36:49 51°16.944 2°52.726 9.2 8 8.2 102360 88
2003-03-25 09:36:53 51°16.957 2°52.714 9.3 7 8.2 102360 88
2003-03-25 09:36:59 51°16.978 2°52.696 9.4 8 8.2 102360 88
2003-03-25 09:37:04 51°16.995 2°52.681 9.3 9 8.2 102360 88
2003-03-25 09:37:09 51°17.012 2°52.665 9.3 8 8.1 102360 88
2003-03-25 09:37:13 51°17.025 2°52.652 8.9 9 8.1 102360 88
2003-03-25 09:37:19 51°17.046 2°52.632 8.7 8 8.1 102360 88
2003-03-25 09:37:24 51°17.063 2°52.617 9.3 7 8.1 102360 88
2003-03-25 09:37:29 51°17.08 2°52.601 9.2 8 8.1 102350 88
2003-03-25 09:37:33 51°17.093 2°52.589 9.3 9 8.1 102350 88
2003-03-25 09:37:39 51°17.113 2°52.571 9.1 8 8.1 102360 88
2003-03-25 09:37:42 51°17.123 2°52.562 9.1 9 8.1 102360 88
2003-03-25 09:37:49 51°17.147 2°52.541 9.2 8 8.1 102360 88
2003-03-25 09:37:53 51°17.16 2°52.528 8.7 8 8.1 102360 88
2003-03-25 09:37:59 51°17.181 2°52.51 8.8 8 8.1 102360 88
2003-03-25 09:38:04 51°17.198 2°52.494 9.2 8 8.1 102360 88
2003-03-25 09:38:09 51°17.215 2°52.48 9.4 8 8.1 102360 88
2003-03-25 09:38:13 51°17.229 2°52.468 8.7 8 8.1 102360 88
2003-03-25 09:38:19 51°17.25 2°52.451 8.5 7 8.1 102360 88
2003-03-25 09:38:22 51°17.261 2°52.443 9.2 10 8.1 102360 88
2003-03-25 09:38:29 51°17.286 2°52.425 9.1 7 8.1 102360 88
2003-03-25 09:38:33 51°17.3 2°52.416 8.9 11 8.1 102360 88
2003-03-25 09:38:39 51°17.322 2°52.402 8.9 9 8.1 102360 88
2003-03-25 09:38:43 51°17.337 2°52.395 8.4 10 8.1 102360 88
2003-03-25 09:38:49 51°17.358 2°52.382 9.2 11 8.1 102360 88
2003-03-25 09:38:53 51°17.373 2°52.374 8.8 8 8.1 102360 88
2003-03-25 09:38:59 51°17.395 2°52.363 9 13 8.1 102360 88
2003-03-25 09:39:03 51°17.41 2°52.355 8.7 9 8.1 102360 88
2003-03-25 09:39:09 51°17.432 2°52.346 9.1 14 8.1 102360 88
2003-03-25 09:39:13 51°17.447 2°52.338 8.5 10 8.1 102360 88
2003-03-25 09:39:19 51°17.469 2°52.331 8.3 13 8.1 102350 88
2003-03-25 09:39:23 51°17.484 2°52.326 8.2 11 8.1 102350 88
2003-03-25 09:39:29 51°17.507 2°52.321 8.7 11 8.1 102360 88
2003-03-25 09:39:34 51°17.525 2°52.315 8.3 12 8.1 102360 88
2003-03-25 09:39:38 51°17.541 2°52.312 8.5 14 8 102360 88
2003-03-25 09:39:44 51°17.563 2°52.307 8.3 14 8 102360 88
2003-03-25 09:39:49 51°17.582 2°52.304 8.2 12 8.1 102360 88
2003-03-25 09:39:54 51°17.601 2°52.302 8.2 14 8.1 102360 88
2003-03-25 09:39:59 51°17.62 2°52.3 8.2 12 8 102360 88
2003-03-25 09:40:03 51°17.635 2°52.299 7.9 15 8 102360 88
2003-03-25 09:40:09 51°17.658 2°52.297 7.8 13 8 102360 88
2003-03-25 09:40:13 51°17.673 2°52.297 7.7 10 8 102360 88
2003-03-25 09:40:19 51°17.696 2°52.295 7.7 14 8 102360 88
2003-03-25 09:40:24 51°17.715 2°52.295 7.6 13 8 102360 88
2003-03-25 09:40:29 51°17.734 2°52.295 7.4 14 8 102360 88
2003-03-25 09:40:33 51°17.749 2°52.294 7.7 13 8 102360 88
2003-03-25 09:40:39 51°17.772 2°52.294 7.6 14 8 102360 88
2003-03-25 09:40:44 51°17.791 2°52.294 7.8 13 8 102360 88
2003-03-25 09:40:48 51°17.806 2°52.294 7.5 13 8 102360 88
2003-03-25 09:40:54 51°17.829 2°52.293 8 13 8 102360 88
2003-03-25 09:40:59 51°17.847 2°52.292 7.8 14 8 102360 88
2003-03-25 09:41:04 51°17.867 2°52.292 7.4 16 8 102360 88
2003-03-25 09:41:09 51°17.886 2°52.292 7.5 15 8 102360 88
2003-03-25 09:41:13 51°17.901 2°52.293 7.6 14 8 102360 88
2003-03-25 09:41:19 51°17.924 2°52.295 7.1 16 8 102360 88
2003-03-25 09:41:23 51°17.939 2°52.298 6.8 14 8 102360 88
2003-03-25 09:41:29 51°17.961 2°52.305 7 17 8 102360 88
2003-03-25 09:41:32 51°17.972 2°52.308 6.9 17 8 102360 88
2003-03-25 09:41:39 51°17.997 2°52.319 6.5 14 8 102360 88
2003-03-25 09:41:44 51°18.015 2°52.33 6.3 17 8 102360 88
2003-03-25 09:41:49 51°18.032 2°52.344 6.4 16 8 102360 88
2003-03-25 09:41:53 51°18.045 2°52.354 6.4 12 8 102360 88
2003-03-25 09:41:59 51°18.064 2°52.372 6.7 14 8 102360 88
2003-03-25 09:42:03 51°18.077 2°52.384 5.9 14 8 102360 88
2003-03-25 09:42:09 51°18.095 2°52.404 6.2 16 8 102370 88
2003-03-25 09:42:13 51°18.107 2°52.418 6.3 15 8 102370 88
2003-03-25 09:42:19 51°18.124 2°52.44 5.9 13 8 102370 88
2003-03-25 09:42:23 51°18.135 2°52.456 5.9 14 8 102370 88
2003-03-25 09:42:29 51°18.15 2°52.481 5.9 12 8 102370 89
2003-03-25 09:42:33 51°18.161 2°52.498 5.6 9 8 102370 89
2003-03-25 09:42:39 51°18.175 2°52.525 5.7 12 8 102370 89
2003-03-25 09:42:44 51°18.187 2°52.548 5.5 11 8 102370 89
2003-03-25 09:42:49 51°18.198 2°52.571 5.8 10 8 102370 89
2003-03-25 09:42:53 51°18.206 2°52.591 5.5 10 8 102370 89
2003-03-25 09:42:59 51°18.218 2°52.621 5.4 9 8 102370 89
2003-03-25 09:43:03 51°18.226 2°52.641 5.7 11 8 102370 89
2003-03-25 09:43:09 51°18.237 2°52.671 5.2 8 8 102370 89
2003-03-25 09:43:13 51°18.244 2°52.691 5.8 8 8 102370 89
2003-03-25 09:43:19 51°18.255 2°52.722 5.5 9 8 102370 89
2003-03-25 09:43:23 51°18.262 2°52.743 5.1 10 8 102370 89
2003-03-25 09:43:29 51°18.272 2°52.775 5.3 9 8 102370 89
2003-03-25 09:43:33 51°18.278 2°52.796 5.3 8 8 102370 89
2003-03-25 09:43:39 51°18.287 2°52.827 5.6 6 8 102370 89
2003-03-25 09:43:43 51°18.293 2°52.849 5.7 9 8 102370 89
2003-03-25 09:43:49 51°18.302 2°52.88 5.3 10 8 102370 89
2003-03-25 09:43:53 51°18.309 2°52.901 5.4 6 8 102370 89
2003-03-25 09:43:59 51°18.319 2°52.932 5.8 9 8 102370 89
2003-03-25 09:44:04 51°18.327 2°52.958 5.5 11 8 102370 89
2003-03-25 09:44:09 51°18.336 2°52.984 5.5 8 8 102370 89
2003-03-25 09:44:13 51°18.343 2°53.005 5.5 8 8 102370 89
2003-03-25 09:44:19 51°18.354 2°53.035 5.5 9 8 102370 89
2003-03-25 09:44:23 51°18.361 2°53.055 5.5 6 8 102370 89
2003-03-25 09:44:29 51°18.372 2°53.086 5.4 8 8 102370 89
2003-03-25 09:44:32 51°18.378 2°53.102 5.5 8 8 102370 89
2003-03-25 09:44:39 51°18.391 2°53.137 5.5 8 8 102370 89
2003-03-25 09:44:43 51°18.398 2°53.157 5.5 7 8 102370 89
2003-03-25 09:44:49 51°18.409 2°53.187 5.4 7 8 102370 89
2003-03-25 09:44:53 51°18.416 2°53.208 5.7 10 8 102370 89
2003-03-25 09:44:59 51°18.427 2°53.239 5.7 8 8 102370 89
2003-03-25 09:45:03 51°18.435 2°53.26 5.4 4 8 102370 89
2003-03-25 09:45:09 51°18.446 2°53.29 5.5 7 8 102370 89
2003-03-25 09:45:13 51°18.454 2°53.31 5.4 6 8 102370 89
2003-03-25 09:45:19 51°18.465 2°53.34 5.7 7 8 102370 89
2003-03-25 09:45:24 51°18.474 2°53.365 5.8 6 8 102370 89
2003-03-25 09:45:29 51°18.484 2°53.391 5.3 7 8 102370 89
2003-03-25 09:45:33 51°18.492 2°53.411 5.6 8 8 102370 89
2003-03-25 09:45:39 51°18.503 2°53.441 5.3 3 8 102370 89
2003-03-25 09:45:43 51°18.51 2°53.461 5.3 4 8 102370 89
2003-03-25 09:45:49 51°18.52 2°53.492 5.4 4 8 102370 89
2003-03-25 09:45:54 51°18.529 2°53.517 5.5 6 8 102370 89
2003-03-25 09:45:59 51°18.538 2°53.542 5.1 4 8 102370 89
2003-03-25 09:46:03 51°18.544 2°53.564 5.3 5 8 102370 89
2003-03-25 09:46:09 51°18.555 2°53.594 5.2 5 8 102370 89
2003-03-25 09:46:13 51°18.563 2°53.615 5.1 6 8 102370 89
2003-03-25 09:46:19 51°18.574 2°53.645 5.3 6 7.9 102370 89
2003-03-25 09:46:24 51°18.583 2°53.67 5.1 5 7.9 102370 89
2003-03-25 09:46:29 51°18.592 2°53.696 5.2 4 7.9 102370 89
2003-03-25 09:46:33 51°18.6 2°53.717 5 2 7.9 102370 89
2003-03-25 09:46:39 51°18.612 2°53.747 5.1 5 7.9 102370 89
2003-03-25 09:46:44 51°18.622 2°53.773 5 5 7.9 102370 89
2003-03-25 09:46:49 51°18.632 2°53.798 5.1 3 7.9 102370 89
2003-03-25 09:46:53 51°18.64 2°53.819 5.1 4 7.9 102370 89
2003-03-25 09:46:59 51°18.651 2°53.85 5.1 3 7.9 102370 89
2003-03-25 09:47:04 51°18.659 2°53.875 5.2 4 7.9 102370 89
2003-03-25 09:47:08 51°18.666 2°53.896 5.1 3 7.9 102370 89
2003-03-25 09:47:14 51°18.677 2°53.928 5 3 7.9 102370 89
2003-03-25 09:47:19 51°18.685 2°53.953 5   7.9 102370 89
2003-03-25 09:47:24 51°18.694 2°53.978 5 2 7.9 102370 89
2003-03-25 09:47:29 51°18.703 2°54.003 5 2 7.9 102370 89
2003-03-25 09:47:33 51°18.71 2°54.024 5 4 7.9 102370 89
2003-03-25 09:47:39 51°18.721 2°54.055 5.2 1 7.9 102370 89
2003-03-25 09:47:43 51°18.729 2°54.075 4.9 3 7.9 102370 89
2003-03-25 09:47:49 51°18.74 2°54.105 5 360 7.9 102370 89
2003-03-25 09:47:53 51°18.747 2°54.125 5 5 7.9 102370 89
2003-03-25 09:47:59 51°18.76 2°54.154 5.1 2 7.9 102370 89
2003-03-25 09:48:03 51°18.768 2°54.174 5.4 5 7.9 102370 89
2003-03-25 09:48:09 51°18.78 2°54.203 5.3 4 7.9 102370 89
2003-03-25 09:48:13 51°18.789 2°54.222 5.5 4 7.9 102370 89
2003-03-25 09:48:18 51°18.799 2°54.246 5.5 5 7.9 102370 89
2003-03-25 09:48:24 51°18.812 2°54.275 5.6 8 7.9 102370 89
2003-03-25 09:48:29 51°18.823 2°54.297 5.5 5 7.9 102370 89
2003-03-25 09:48:33 51°18.832 2°54.316 5.7 6 7.9 102370 89
2003-03-25 09:48:39 51°18.845 2°54.344 5.7 5 7.9 102370 89
2003-03-25 09:48:43 51°18.854 2°54.363 5.7 5 7.9 102370 89
2003-03-25 09:48:49 51°18.867 2°54.391 5.7 5 7.9 102370 89
2003-03-25 09:48:54 51°18.879 2°54.414 5.7 7 7.9 102370 89
2003-03-25 09:48:58 51°18.888 2°54.433 5.7 5 7.9 102370 89
2003-03-25 09:49:04 51°18.901 2°54.461 5.9 5 7.9 102370 89
2003-03-25 09:49:09 51°18.912 2°54.484 5.7 7 7.9 102370 89
2003-03-25 09:49:13 51°18.921 2°54.503 5.6 6 7.9 102370 89
2003-03-25 09:49:19 51°18.934 2°54.531 5.6 8 7.9 102370 89
2003-03-25 09:49:23 51°18.943 2°54.55 5.7 7 7.9 102370 89
2003-03-25 09:49:29 51°18.957 2°54.578 5.8 8 7.9 102370 89
2003-03-25 09:49:32 51°18.963 2°54.592 5.7 7 7.9 102370 89
2003-03-25 09:49:39 51°18.979 2°54.626 5.6 8 7.9 102370 89
2003-03-25 09:49:42 51°18.985 2°54.64 5.7 5 7.9 102370 89
2003-03-25 09:49:49 51°19 2°54.674 5.6 8 7.9 102370 89
2003-03-25 09:49:53 51°19.009 2°54.692 5.5 5 7.9 102370 89
2003-03-25 09:49:58 51°19.02 2°54.716 5.5 7 7.9 102370 89
2003-03-25 09:50:01 51°19.027 2°54.729 5.4 5 7.9 102370 89
2003-03-25 09:50:09 51°19.044 2°54.767 5.6 6 7.9 102370 89
2003-03-25 09:50:14 51°19.056 2°54.79 5.5 9 7.9 102370 89
2003-03-25 09:50:19 51°19.067 2°54.812 5.4 5 7.9 102370 89
2003-03-25 09:50:24 51°19.079 2°54.834 5.6 10 7.9 102370 89
2003-03-25 09:50:29 51°19.093 2°54.854 5.7 5 7.9 102370 89
2003-03-25 09:50:34 51°19.107 2°54.875 6.1 8 7.9 102370 89
2003-03-25 09:50:39 51°19.121 2°54.893 6 9 7.9 102370 89
2003-03-25 09:50:43 51°19.132 2°54.907 6 7 7.9 102370 89
2003-03-25 09:50:50 51°19.153 2°54.93 6.3 9 7.9 102370 89
2003-03-25 09:50:54 51°19.166 2°54.943 6.4 9 7.9 102370 89
2003-03-25 09:51:00 51°19.184 2°54.963 6.3 10 7.9 102370 89
2003-03-25 09:51:04 51°19.197 2°54.976 6.3 5 7.9 102370 89
2003-03-25 09:51:09 51°19.214 2°54.991 6.7 12 7.9 102370 89
2003-03-25 09:51:14 51°19.23 2°55.006 6.2 7 7.9 102370 89
2003-03-25 09:51:20 51°19.249 2°55.025 6.7 12 7.9 102370 89
2003-03-25 09:51:24 51°19.262 2°55.036 6.6 11 7.9 102370 89
2003-03-25 09:51:30 51°19.281 2°55.054 6.5 13 7.9 102360 89
2003-03-25 09:51:34 51°19.294 2°55.066 6.7 9 7.9 102360 89
2003-03-25 09:51:40 51°19.314 2°55.084 6.6 12 7.9 102370 89
2003-03-25 09:51:44 51°19.326 2°55.095 6.6 9 7.9 102370 89
2003-03-25 09:51:50 51°19.346 2°55.113 6.5 11 8 102370 89
2003-03-25 09:51:54 51°19.359 2°55.125 7.1 9 8 102370 89
2003-03-25 09:52:00 51°19.378 2°55.144 6.7 11 7.9 102360 89
2003-03-25 09:52:04 51°19.391 2°55.156 6.8 10 7.9 102360 89
2003-03-25 09:52:10 51°19.41 2°55.175 6.8 9 7.9 102370 89
2003-03-25 09:52:14 51°19.423 2°55.187 7 9 7.9 102370 89
2003-03-25 09:52:20 51°19.442 2°55.205 7.2 13 8 102370 89
2003-03-25 09:52:25 51°19.458 2°55.219 7.2 10 8 102370 89
2003-03-25 09:52:29 51°19.472 2°55.23 7.5 11 8 102370 89
2003-03-25 09:52:34 51°19.489 2°55.243 6.8 11 8 102370 89
2003-03-25 09:52:40 51°19.509 2°55.258 7.5 13 8 102370 89
2003-03-25 09:52:44 51°19.523 2°55.266 7.3 11 8 102370 89
2003-03-25 09:52:49 51°19.541 2°55.278 7.3 10 8 102370 89
2003-03-25 09:52:54 51°19.558 2°55.289 7.5 10 8 102370 89
2003-03-25 09:53:00 51°19.579 2°55.301 7.5 12 8 102370 89
2003-03-25 09:53:04 51°19.593 2°55.31 7.4 9 8 102370 89
2003-03-25 09:53:10 51°19.614 2°55.322 7.7 12 8 102370 89
2003-03-25 09:53:15 51°19.632 2°55.332 7.6 12 8 102370 89
2003-03-25 09:53:20 51°19.65 2°55.342 7.2 9 8 102370 89
2003-03-25 09:53:25 51°19.668 2°55.351 7.5 10 8 102370 89
2003-03-25 09:53:30 51°19.686 2°55.357 7.8 9 8 102360 89
2003-03-25 09:53:34 51°19.701 2°55.36 7.5 9 8 102360 89
2003-03-25 09:53:40 51°19.724 2°55.361 8.1 7 8 102370 89
2003-03-25 09:53:44 51°19.739 2°55.36 8.4 9 8 102370 89
2003-03-25 09:53:50 51°19.761 2°55.358 8.2 8 8 102360 89
2003-03-25 09:53:53 51°19.772 2°55.357 8.3 8 8 102360 89
2003-03-25 09:54:00 51°19.799 2°55.352 8.1 7 8 102360 89
2003-03-25 09:54:05 51°19.818 2°55.349 8.4 9 8 102360 89
2003-03-25 09:54:10 51°19.836 2°55.344 8.3 8 8 102360 89
2003-03-25 09:54:14 51°19.851 2°55.341 8.2 10 8 102360 89
2003-03-25 09:54:20 51°19.874 2°55.336 8.1 7 8 102360 89
2003-03-25 09:54:25 51°19.893 2°55.334 8.5 12 8 102360 89
2003-03-25 09:54:30 51°19.912 2°55.331 7.9 9 8 102360 89
2003-03-25 09:54:34 51°19.927 2°55.329 7.8 10 8 102360 89
2003-03-25 09:54:38 51°19.943 2°55.326 8.2 9 8 102370 89
2003-03-25 09:54:45 51°19.97 2°55.323 7.8 11 8 102370 89
2003-03-25 09:54:50 51°19.989 2°55.321 8 8 8 102360 89
2003-03-25 09:54:54 51°20.005 2°55.32 8.3 11 8 102360 89
2003-03-25 09:55:00 51°20.028 2°55.316 8 10 8 102360 89
2003-03-25 09:55:05 51°20.048 2°55.313 7.8 11 8 102360 89
2003-03-25 09:55:10 51°20.067 2°55.312 8 9 8 102360 89
2003-03-25 09:55:14 51°20.082 2°55.311 7.9 10 8 102360 89
2003-03-25 09:55:20 51°20.105 2°55.308 7.5 11 8 102360 89
2003-03-25 09:55:24 51°20.12 2°55.305 7.6 11 8 102360 89
2003-03-25 09:55:30 51°20.143 2°55.303 7.8 10 8 102360 89
2003-03-25 09:55:34 51°20.158 2°55.302 8 10 8 102360 89
2003-03-25 09:55:40 51°20.182 2°55.301 7.7 10 8 102360 89
2003-03-25 09:55:44 51°20.197 2°55.299 7.8 11 8 102360 89
2003-03-25 09:55:50 51°20.219 2°55.296 7.6 10 8 102360 89
2003-03-25 09:55:54 51°20.235 2°55.293 7.9 11 8 102360 89
2003-03-25 09:56:00 51°20.257 2°55.29 7.7 11 8 102360 89
2003-03-25 09:56:04 51°20.272 2°55.289 7.6 11 8 102360 89
2003-03-25 09:56:10 51°20.295 2°55.286 7.8 10 8 102360 89
2003-03-25 09:56:14 51°20.311 2°55.284 7.4 12 8 102360 89
2003-03-25 09:56:20 51°20.334 2°55.282 7.9 11 8 102360 89
2003-03-25 09:56:25 51°20.353 2°55.279 7.5 11 8 102360 89
2003-03-25 09:56:30 51°20.372 2°55.277 8 11 8 102360 89
2003-03-25 09:56:34 51°20.387 2°55.275 7.4 10 8 102360 89
2003-03-25 09:56:40 51°20.41 2°55.272 7.7 12 8 102360 89
2003-03-25 09:56:45 51°20.429 2°55.269 7.4 11 8 102360 89
2003-03-25 09:56:49 51°20.444 2°55.268 7.9 13 8 102360 89
2003-03-25 09:56:54 51°20.464 2°55.266 7.6 11 8 102360 89
2003-03-25 09:57:00 51°20.487 2°55.264 7.6 12 8 102360 89
2003-03-25 09:57:05 51°20.506 2°55.262 7.5 12 8 102360 89
2003-03-25 09:57:10 51°20.525 2°55.26 7.7 12 8 102360 89
2003-03-25 09:57:14 51°20.54 2°55.258 7.7 12 8 102360 89
2003-03-25 09:57:20 51°20.563 2°55.255 7.4 12 8 102360 89
2003-03-25 09:57:24 51°20.579 2°55.254 7.6 11 8 102360 89
2003-03-25 09:57:30 51°20.602 2°55.251 7.5 12 8 102360 89
2003-03-25 09:57:34 51°20.618 2°55.25 8 11 8 102360 89
2003-03-25 09:57:38 51°20.633 2°55.249 7.8 11 8 102360 89
2003-03-25 09:57:43 51°20.653 2°55.246 7.6 11 8 102360 89
2003-03-25 09:57:49 51°20.676 2°55.245 7.9 11 8 102360 89
2003-03-25 09:57:53 51°20.691 2°55.242 7.6 11 8 102360 89
2003-03-25 09:57:58 51°20.71 2°55.24 8.2 12 8 102350 89
2003-03-25 09:58:04 51°20.734 2°55.237 7.7 10 8 102350 89
2003-03-25 09:58:09 51°20.752 2°55.233 8.1 12 8 102350 89
2003-03-25 09:58:14 51°20.771 2°55.231 8.2 10 8 102350 89
2003-03-25 09:58:19 51°20.791 2°55.229 7.7 10 8 102360 89
2003-03-25 09:58:23 51°20.807 2°55.228 7.8 9 8 102360 89
2003-03-25 09:58:29 51°20.829 2°55.226 8 9 8 102360 89
2003-03-25 09:58:33 51°20.845 2°55.225 8 9 8 102360 89
2003-03-25 09:58:38 51°20.864 2°55.223 7.7 9 8 102360 89
2003-03-25 09:58:44 51°20.888 2°55.221 7.9 9 8 102360 89
2003-03-25 09:58:49 51°20.907 2°55.219 8 10 8 102360 89
2003-03-25 09:58:53 51°20.922 2°55.217 8.1 8 8 102360 89
2003-03-25 09:58:59 51°20.946 2°55.215 7.9 9 8 102360 89
2003-03-25 09:59:04 51°20.965 2°55.213 8.2 9 8 102360 89
2003-03-25 09:59:09 51°20.985 2°55.212 7.8 8 8 102360 89
2003-03-25 09:59:14 51°21.004 2°55.21 7.9 8 8 102360 89
2003-03-25 09:59:19 51°21.024 2°55.209 7.7 9 8 102350 89
2003-03-25 09:59:24 51°21.043 2°55.207 7.8 8 8 102350 89
2003-03-25 09:59:29 51°21.063 2°55.206 7.9 7 8 102350 89
2003-03-25 09:59:33 51°21.078 2°55.203 8.2 7 8 102350 89
2003-03-25 09:59:38 51°21.097 2°55.201 8.2 8 8 102360 89
2003-03-25 09:59:44 51°21.12 2°55.199 7.9 7 8 102360 89
2003-03-25 09:59:49 51°21.14 2°55.197 8.2 7 8 102360 89
2003-03-25 09:59:54 51°21.159 2°55.196 8 7 8 102360 89
2003-03-25 09:59:59 51°21.178 2°55.194 8.3 6 8 102360 89
2003-03-25 10:00:04 51°21.197 2°55.192 8 6 8 102360 89
2003-03-25 10:00:09 51°21.217 2°55.19 8.6 6 8 102360 89
2003-03-25 10:00:14 51°21.236 2°55.188 8.6 6 8 102360 89
2003-03-25 10:00:19 51°21.255 2°55.187 8.1 6 7.9 102350 89
2003-03-25 10:00:25 51°21.279 2°55.185 8.1 6 7.9 102350 89
2003-03-25 10:00:29 51°21.294 2°55.184 8.6 5 7.9 102360 89
2003-03-25 10:00:34 51°21.313 2°55.181 8.1 5 7.9 102360 89
2003-03-25 10:00:40 51°21.336 2°55.178 8.5 5 7.9 102360 89
2003-03-25 10:00:44 51°21.352 2°55.176 8.6 5 7.9 102360 89
2003-03-25 10:00:48 51°21.367 2°55.174 8.5 3 7.9 102360 89
2003-03-25 10:00:54 51°21.39 2°55.172 8 5 7.9 102360 89
2003-03-25 10:00:59 51°21.41 2°55.17 8.5 5 7.9 102360 89
2003-03-25 10:01:04 51°21.429 2°55.168 7.9 5 7.9 102360 89
2003-03-25 10:01:09 51°21.449 2°55.166 8.3 4 7.9 102360 89
2003-03-25 10:01:14 51°21.468 2°55.164 8 5 7.9 102360 89
2003-03-25 10:01:18 51°21.484 2°55.162 8.2 3 7.9 102360 89
2003-03-25 10:01:24 51°21.507 2°55.16 8 6 7.9 102360 89
2003-03-25 10:01:29 51°21.527 2°55.158 8 5 7.9 102350 89
2003-03-25 10:01:34 51°21.546 2°55.156 8.3 4 7.9 102350 89
2003-03-25 10:01:39 51°21.565 2°55.154 8.3 4 7.9 102360 89
2003-03-25 10:01:44 51°21.585 2°55.152 8.4 5 7.9 102360 89
2003-03-25 10:01:50 51°21.608 2°55.15 8.5 4 7.9 102350 89
2003-03-25 10:01:54 51°21.623 2°55.149 8.1 4 7.9 102350 89
2003-03-25 10:01:58 51°21.639 2°55.147 8.3 6 7.9 102360 89
2003-03-25 10:02:04 51°21.662 2°55.144 8.2 6 7.9 102360 89
2003-03-25 10:02:09 51°21.682 2°55.143 8.1 6 7.9 102360 89
2003-03-25 10:02:14 51°21.701 2°55.141 8.4 5 7.9 102360 89
2003-03-25 10:02:19 51°21.72 2°55.139 7.9 5 7.9 102360 89
2003-03-25 10:02:24 51°21.74 2°55.138 8.3 6 7.9 102360 89
2003-03-25 10:02:28 51°21.756 2°55.137 8.1 5 7.9 102360 89
2003-03-25 10:02:34 51°21.779 2°55.135 8.2 4 7.9 102360 89
2003-03-25 10:02:38 51°21.795 2°55.134 8.1 4 7.8 102350 89
2003-03-25 10:02:45 51°21.822 2°55.131 7.9 5 7.8 102350 89
2003-03-25 10:02:49 51°21.838 2°55.13 8.1 3 7.8 102350 89
2003-03-25 10:02:53 51°21.853 2°55.129 8.5 5 7.8 102350 89
2003-03-25 10:02:58 51°21.873 2°55.127 8 5 7.8 102350 89
2003-03-25 10:03:04 51°21.896 2°55.125 8 5 7.8 102350 89
2003-03-25 10:03:09 51°21.916 2°55.124 8 4 7.8 102350 89
2003-03-25 10:03:14 51°21.936 2°55.123 8.2 4 7.8 102350 89
2003-03-25 10:03:18 51°21.952 2°55.122 8.4 4 7.8 102360 89
2003-03-25 10:03:24 51°21.975 2°55.119 8.2 4 7.8 102360 89
2003-03-25 10:03:29 51°21.995 2°55.117 7.9 3 7.8 102350 89
2003-03-25 10:03:34 51°22.014 2°55.116 8.1 4 7.8 102350 89
2003-03-25 10:03:39 51°22.034 2°55.113 8.1 4 7.8 102350 89
2003-03-25 10:03:44 51°22.053 2°55.112 8 5 7.8 102350 89
2003-03-25 10:03:49 51°22.073 2°55.11 7.9 6 7.8 102360 89
2003-03-25 10:03:54 51°22.092 2°55.111 7.9 4 7.8 102360 89
2003-03-25 10:04:00 51°22.116 2°55.114 7.8 5 7.8 102360 89
2003-03-25 10:04:05 51°22.135 2°55.118 8 6 7.8 102360 89
2003-03-25 10:04:10 51°22.155 2°55.122 8.1 5 7.8 102350 89
2003-03-25 10:04:14 51°22.17 2°55.126 7.8 5 7.8 102350 89
2003-03-25 10:04:20 51°22.193 2°55.131 7.7 5 7.8 102360 89
2003-03-25 10:04:25 51°22.212 2°55.138 7.8 6 7.8 102360 89
2003-03-25 10:04:30 51°22.231 2°55.144 7.4 6 7.8 102360 89
2003-03-25 10:04:35 51°22.25 2°55.152 7.9 6 7.8 102360 89
2003-03-25 10:04:40 51°22.269 2°55.159 8 5 7.8 102360 89
2003-03-25 10:04:45 51°22.287 2°55.167 7.9 5 7.8 102360 89
2003-03-25 10:04:50 51°22.306 2°55.175 7.6 5 7.8 102360 89
2003-03-25 10:04:54 51°22.321 2°55.181 8 6 7.8 102360 89
2003-03-25 10:05:00 51°22.344 2°55.189 8.3 6 7.8 102360 89
2003-03-25 10:05:05 51°22.363 2°55.196 7.9 7 7.8 102360 89
2003-03-25 10:05:10 51°22.381 2°55.203 8 7 7.8 102360 89
2003-03-25 10:05:14 51°22.397 2°55.209 8.2 6 7.8 102360 89
2003-03-25 10:05:20 51°22.42 2°55.218 7.9 6 7.8 102360 89
2003-03-25 10:05:25 51°22.438 2°55.225 8.2 6 7.8 102360 89
2003-03-25 10:05:30 51°22.457 2°55.232 8.3 6 7.7 102360 89
2003-03-25 10:05:34 51°22.472 2°55.238 8 6 7.7 102360 89
2003-03-25 10:05:40 51°22.495 2°55.246 8.4 6 7.7 102360 89
2003-03-25 10:05:45 51°22.514 2°55.253 8.3 6 7.7 102360 89
2003-03-25 10:05:50 51°22.533 2°55.261 8.1 7 7.7 102350 89
2003-03-25 10:05:54 51°22.548 2°55.266 8.1 5 7.7 102350 89
2003-03-25 10:06:00 51°22.571 2°55.274 8.4 6 7.7 102360 89
2003-03-25 10:06:05 51°22.59 2°55.281 8.3 6 7.7 102360 89
2003-03-25 10:06:10 51°22.609 2°55.289 8.6 6 7.7 102350 89
2003-03-25 10:06:14 51°22.624 2°55.294 8.6 6 7.7 102350 89
2003-03-25 10:06:20 51°22.647 2°55.302 8.2 5 7.7 102360 89
2003-03-25 10:06:25 51°22.666 2°55.309 8.4 6 7.7 102360 89
2003-03-25 10:06:30 51°22.685 2°55.315 8.2 7 7.7 102360 89
2003-03-25 10:06:34 51°22.7 2°55.321 8.1 7 7.7 102360 89
2003-03-25 10:06:40 51°22.723 2°55.329 8.1 7 7.7 102360 89
2003-03-25 10:06:45 51°22.741 2°55.336 7.9 6 7.7 102360 89
2003-03-25 10:06:51 51°22.764 2°55.344 8 6 7.7 102360 89
2003-03-25 10:06:55 51°22.779 2°55.349 7.9 5 7.7 102360 89
2003-03-25 10:06:59 51°22.794 2°55.355 8 6 7.7 102350 89
2003-03-25 10:07:05 51°22.817 2°55.363 7.8 6 7.7 102350 89
2003-03-25 10:07:10 51°22.836 2°55.369 7.7 5 7.7 102360 89
2003-03-25 10:07:15 51°22.854 2°55.375 7.5 7 7.7 102360 89
2003-03-25 10:07:19 51°22.869 2°55.38 7.5 7 7.7 102360 89
2003-03-25 10:07:25 51°22.892 2°55.388 7.5 5 7.7 102360 89
2003-03-25 10:07:29 51°22.907 2°55.393 7.9 6 7.7 102360 89
2003-03-25 10:07:34 51°22.925 2°55.399 7.5 5 7.7 102360 89
2003-03-25 10:07:40 51°22.948 2°55.406 7.4 6 7.7 102360 89
2003-03-25 10:07:45 51°22.967 2°55.413 8.2 6 7.7 102360 89
2003-03-25 10:07:51 51°22.989 2°55.421 7.8 6 7.7 102350 89
2003-03-25 10:07:55 51°23.004 2°55.427 7.4 7 7.7 102350 89
2003-03-25 10:08:01 51°23.027 2°55.434 7.4 6 7.7 102350 89
2003-03-25 10:08:06 51°23.046 2°55.44 7.4 6 7.7 102350 89
2003-03-25 10:08:11 51°23.064 2°55.447 7.9 6 7.7 102360 89
2003-03-25 10:08:15 51°23.079 2°55.452 8 5 7.7 102360 89
2003-03-25 10:08:20 51°23.098 2°55.458 7.3 7 7.7 102350 89
2003-03-25 10:08:26 51°23.12 2°55.465 7.4 7 7.7 102350 89
2003-03-25 10:08:31 51°23.139 2°55.471 7.3 7 7.7 102350 89
2003-03-25 10:08:36 51°23.158 2°55.478 7.7 5 7.7 102350 89
2003-03-25 10:08:40 51°23.173 2°55.482 8 6 7.7 102350 89
2003-03-25 10:08:46 51°23.196 2°55.49 7.6 5 7.7 102350 89
2003-03-25 10:08:49 51°23.207 2°55.494 7.5 7 7.7 102350 89
2003-03-25 10:08:56 51°23.233 2°55.502 7.1 5 7.7 102350 89
2003-03-25 10:09:01 51°23.251 2°55.508 7.2 7 7.7 102360 90
2003-03-25 10:09:06 51°23.27 2°55.514 7.1 6 7.7 102360 90
2003-03-25 10:09:10 51°23.285 2°55.518 7.2 7 7.7 102360 90
2003-03-25 10:09:15 51°23.304 2°55.524 7.7 7 7.7 102360 90
2003-03-25 10:09:19 51°23.319 2°55.529 7.3 6 7.7 102360 90
2003-03-25 10:09:26 51°23.345 2°55.538 7.7 5 7.7 102360 90
2003-03-25 10:09:30 51°23.36 2°55.544 7.7 6 7.7 102350 90
2003-03-25 10:09:35 51°23.379 2°55.55 7.1 5 7.7 102350 90
2003-03-25 10:09:40 51°23.397 2°55.556 7.4 4 7.7 102350 90
2003-03-25 10:09:46 51°23.419 2°55.563 7.2 4 7.7 102350 90
2003-03-25 10:09:50 51°23.434 2°55.568 7.4 5 7.7 102350 90
2003-03-25 10:09:55 51°23.453 2°55.574 7.4 4 7.7 102350 90
2003-03-25 10:10:00 51°23.472 2°55.58 7.5 4 7.7 102350 90
2003-03-25 10:10:05 51°23.49 2°55.587 7.5 4 7.7 102350 90
2003-03-25 10:10:10 51°23.509 2°55.593 7.5 4 7.7 102360 90
2003-03-25 10:10:15 51°23.528 2°55.6 7.2 4 7.7 102360 90
2003-03-25 10:10:19 51°23.543 2°55.605 7.4 5 7.7 102350 90
2003-03-25 10:10:25 51°23.566 2°55.613 7.8 3 7.7 102350 90
2003-03-25 10:10:30 51°23.585 2°55.62 7.5 4 7.7 102350 90
2003-03-25 10:10:35 51°23.603 2°55.626 7.4 4 7.7 102350 90
2003-03-25 10:10:39 51°23.619 2°55.632 7.4 3 7.7 102350 90
2003-03-25 10:10:45 51°23.641 2°55.639 7.4 4 7.7 102350 90
2003-03-25 10:10:50 51°23.659 2°55.645 7.7 4 7.7 102350 90
2003-03-25 10:10:55 51°23.678 2°55.651 7.4 3 7.7 102350 90
2003-03-25 10:11:00 51°23.696 2°55.658 7.9 4 7.7 102350 90
2003-03-25 10:11:05 51°23.715 2°55.664 7.6 4 7.7 102350 90
2003-03-25 10:11:10 51°23.734 2°55.671 7.8 2 7.7 102350 90
2003-03-25 10:11:15 51°23.754 2°55.677 7.7 5 7.7 102350 90
2003-03-25 10:11:20 51°23.772 2°55.681 7.5 359 7.7 102350 90
2003-03-25 10:11:25 51°23.791 2°55.685 7.7 4 7.7 102350 90
2003-03-25 10:11:29 51°23.806 2°55.688 7.5 3 7.7 102350 89
2003-03-25 10:11:35 51°23.828 2°55.692 8 3 7.7 102350 89
2003-03-25 10:11:40 51°23.847 2°55.696 7.7 2 7.7 102350 89
2003-03-25 10:11:45 51°23.867 2°55.7 7.6 2 7.7 102350 89
2003-03-25 10:11:50 51°23.886 2°55.703 7.6 3 7.7 102350 89
2003-03-25 10:11:55 51°23.905 2°55.706 7.5 3 7.7 102350 89
2003-03-25 10:11:59 51°23.92 2°55.709 7.8 3 7.7 102360 89
2003-03-25 10:12:05 51°23.943 2°55.714 7.8 2 7.7 102360 89
2003-03-25 10:12:10 51°23.962 2°55.717 7.9 359 7.7 102350 89
2003-03-25 10:12:15 51°23.981 2°55.719 8 3 7.7 102350 89
2003-03-25 10:12:20 51°24.001 2°55.721 7.9 1 7.7 102350 89
2003-03-25 10:12:25 51°24.02 2°55.722 7.9 2 7.7 102350 89
2003-03-25 10:12:30 51°24.039 2°55.722 7.9 359 7.7 102350 89
2003-03-25 10:12:35 51°24.059 2°55.722 7.8 1 7.7 102350 89
2003-03-25 10:12:39 51°24.075 2°55.721 7.6 359 7.7 102350 89
2003-03-25 10:12:45 51°24.098 2°55.72 8.2 1 7.7 102350 89
2003-03-25 10:12:50 51°24.117 2°55.718 8.2 360 7.7 102350 89
2003-03-25 10:12:55 51°24.136 2°55.716 8.3 2 7.7 102350 89
2003-03-25 10:13:00 51°24.155 2°55.712 8.1 1 7.7 102350 89
2003-03-25 10:13:06 51°24.178 2°55.709 8.4 1 7.7 102350 89
2003-03-25 10:13:10 51°24.194 2°55.707 8.5 1 7.7 102350 89
2003-03-25 10:13:14 51°24.209 2°55.704 8.3   7.7 102350 89
2003-03-25 10:13:20 51°24.232 2°55.701 8.3 1 7.7 102350 89
2003-03-25 10:13:25 51°24.252 2°55.7 7.9   7.7 102350 89
2003-03-25 10:13:30 51°24.272 2°55.698 8.3 1 7.7 102350 90
2003-03-25 10:13:35 51°24.291 2°55.695 8.1 360 7.7 102350 90
2003-03-25 10:13:40 51°24.311 2°55.693 8.3 359 7.7 102350 90
2003-03-25 10:13:45 51°24.33 2°55.691 8.3 359 7.7 102350 90
2003-03-25 10:13:50 51°24.35 2°55.689 8.6 358 7.7 102350 90
2003-03-25 10:13:55 51°24.37 2°55.687 8.4 360 7.7 102350 90
2003-03-25 10:14:01 51°24.393 2°55.684 8.3   7.7 102350 90
2003-03-25 10:14:05 51°24.409 2°55.683 8.5 2 7.7 102350 90
2003-03-25 10:14:10 51°24.429 2°55.68 8 1 7.7 102350 90
2003-03-25 10:14:15 51°24.449 2°55.678 8.2 2 7.7 102350 90
2003-03-25 10:14:19 51°24.464 2°55.676 8.1 359 7.7 102350 90
2003-03-25 10:14:26 51°24.493 2°55.673 8.1   7.7 102350 90
2003-03-25 10:14:30 51°24.508 2°55.669 8.2 358 7.7 102350 89
2003-03-25 10:14:35 51°24.528 2°55.663 8.3 359 7.7 102350 89
2003-03-25 10:14:39 51°24.544 2°55.658 8.3 358 7.7 102350 89
2003-03-25 10:14:45 51°24.566 2°55.648 8.2 359 7.7 102350 89
2003-03-25 10:14:50 51°24.585 2°55.64 7.9 358 7.7 102360 90
2003-03-25 10:14:55 51°24.604 2°55.63 8 357 7.7 102360 90
2003-03-25 10:14:59 51°24.619 2°55.621 8.4 357 7.7 102350 90
2003-03-25 10:15:05 51°24.64 2°55.608 8.3 356 7.7 102350 90
2003-03-25 10:15:10 51°24.659 2°55.596 8.4 357 7.6 102350 90
2003-03-25 10:15:15 51°24.676 2°55.583 8.1 356 7.6 102350 90
2003-03-25 10:15:20 51°24.693 2°55.568 8.2 356 7.6 102350 90
2003-03-25 10:15:25 51°24.711 2°55.554 8.2 355 7.6 102350 90
2003-03-25 10:15:30 51°24.729 2°55.541 7.9 358 7.6 102350 90
2003-03-25 10:15:35 51°24.745 2°55.525 7.9 354 7.6 102350 90
2003-03-25 10:15:39 51°24.759 2°55.513 8.5 359 7.6 102350 90
2003-03-25 10:15:45 51°24.78 2°55.494 8.2 356 7.6 102350 90
2003-03-25 10:15:50 51°24.797 2°55.478 8.1 357 7.6 102350 90
2003-03-25 10:15:55 51°24.814 2°55.464 7.8 355 7.6 102350 90
2003-03-25 10:15:59 51°24.828 2°55.452 8.1 359 7.6 102350 90
2003-03-25 10:16:05 51°24.849 2°55.435 7.9 355 7.6 102350 90
2003-03-25 10:16:10 51°24.867 2°55.42 8 356 7.6 102350 89
2003-03-25 10:16:15 51°24.884 2°55.404 8.2 357 7.6 102350 89
2003-03-25 10:16:20 51°24.901 2°55.389 7.7 354 7.6 102350 89
2003-03-25 10:16:25 51°24.918 2°55.374 7.6 353 7.6 102350 89
2003-03-25 10:16:30 51°24.935 2°55.358 7.9 354 7.6 102350 89
2003-03-25 10:16:35 51°24.951 2°55.342 7.6 355 7.6 102350 89
2003-03-25 10:16:39 51°24.965 2°55.329 7.7 353 7.6 102350 89
2003-03-25 10:16:45 51°24.985 2°55.312 7.9 354 7.6 102350 89
2003-03-25 10:16:50 51°25.003 2°55.297 8 355 7.6 102350 90
2003-03-25 10:16:55 51°25.02 2°55.282 7.9 356 7.6 102350 90
2003-03-25 10:17:00 51°25.038 2°55.268 8 357 7.6 102360 90
2003-03-25 10:17:05 51°25.055 2°55.252 7.9 355 7.6 102360 90
2003-03-25 10:17:10 51°25.072 2°55.237 8 358 7.6 102350 90
2003-03-25 10:17:15 51°25.09 2°55.221 7.8 352 7.6 102350 90
2003-03-25 10:17:19 51°25.104 2°55.21 7.9   7.6 102350 90
2003-03-25 10:17:25 51°25.125 2°55.191 8.1 355 7.6 102350 90
2003-03-25 10:17:30 51°25.142 2°55.177 7.9 359 7.6 102350 90
2003-03-25 10:17:35 51°25.159 2°55.161 7.7 358 7.6 102350 90
2003-03-25 10:17:39 51°25.173 2°55.149 7.8 356 7.7 102350 90
2003-03-25 10:17:45 51°25.194 2°55.131 7.7 358 7.7 102350 90
2003-03-25 10:17:50 51°25.211 2°55.116 7.5 357 7.7 102350 90
2003-03-25 10:17:55 51°25.228 2°55.101 7.8 357 7.7 102350 90
2003-03-25 10:17:59 51°25.242 2°55.089 7.6 358 7.7 102350 90
2003-03-25 10:18:05 51°25.263 2°55.072 7.9 357 7.7 102350 90
2003-03-25 10:18:10 51°25.281 2°55.057 7.8 358 7.7 102350 90
2003-03-25 10:18:15 51°25.299 2°55.043 7.7 357 7.7 102350 90
2003-03-25 10:18:20 51°25.316 2°55.028 7.9 357 7.7 102350 90
2003-03-25 10:18:25 51°25.333 2°55.012 8 358 7.7 102350 90
2003-03-25 10:18:30 51°25.351 2°54.997 7.8 357 7.7 102350 90
2003-03-25 10:18:35 51°25.368 2°54.982 8 358 7.7 102350 90
2003-03-25 10:18:39 51°25.382 2°54.971 7.8 358 7.7 102340 90
2003-03-25 10:18:45 51°25.403 2°54.953 8 357 7.7 102340 90
2003-03-25 10:18:50 51°25.421 2°54.939 7.5 357 7.7 102350 90
2003-03-25 10:18:55 51°25.438 2°54.924 7.9 356 7.7 102350 90
2003-03-25 10:18:59 51°25.452 2°54.912 7.4 356 7.7 102350 90
2003-03-25 10:19:05 51°25.473 2°54.894 7.6 356 7.7 102350 90
2003-03-25 10:19:10 51°25.491 2°54.879 7.9 356 7.7 102350 90
2003-03-25 10:19:15 51°25.509 2°54.866 8 356 7.7 102350 90
2003-03-25 10:19:20 51°25.527 2°54.853 8 356 7.7 102350 90
2003-03-25 10:19:25 51°25.545 2°54.838 7.7 356 7.7 102350 90
2003-03-25 10:19:30 51°25.561 2°54.823 7.9 356 7.7 102350 90
2003-03-25 10:19:35 51°25.576 2°54.805 7.8 355 7.7 102350 90
2003-03-25 10:19:40 51°25.593 2°54.79 7.6 355 7.7 102350 90
2003-03-25 10:19:45 51°25.611 2°54.776 7.7 356 7.7 102350 90
2003-03-25 10:19:50 51°25.628 2°54.761 7.9 355 7.7 102350 90
2003-03-25 10:19:55 51°25.645 2°54.746 7.8 355 7.7 102350 90
2003-03-25 10:19:59 51°25.659 2°54.734 8.1 355 7.7 102350 90
2003-03-25 10:20:05 51°25.68 2°54.717 7.6 356 7.7 102350 90
2003-03-25 10:20:10 51°25.697 2°54.702 8.1 356 7.7 102350 90
2003-03-25 10:20:15 51°25.716 2°54.689 7.9 356 7.7 102350 90
2003-03-25 10:20:20 51°25.734 2°54.675 7.8 355 7.7 102350 90
2003-03-25 10:20:25 51°25.752 2°54.661 8.1 355 7.7 102350 90
2003-03-25 10:20:30 51°25.769 2°54.647 7.8 355 7.7 102350 90
2003-03-25 10:20:35 51°25.787 2°54.633 7.7 354 7.7 102350 90
2003-03-25 10:20:39 51°25.801 2°54.621 8 355 7.7 102350 90
2003-03-25 10:20:45 51°25.822 2°54.604 8.3 355 7.7 102350 90
2003-03-25 10:20:50 51°25.84 2°54.59 7.8 355 7.7 102350 90
2003-03-25 10:20:55 51°25.857 2°54.575 8 354 7.7 102350 90
2003-03-25 10:21:00 51°25.875 2°54.561 8.2 355 7.7 102350 90
2003-03-25 10:21:05 51°25.893 2°54.547 8 355 7.7 102350 90
2003-03-25 10:21:10 51°25.911 2°54.533 8 356 7.7 102350 90
2003-03-25 10:21:15 51°25.928 2°54.518 8 356 7.7 102350 90
2003-03-25 10:21:20 51°25.946 2°54.504 7.9 354 7.8 102350 90
2003-03-25 10:21:25 51°25.964 2°54.491 7.9 355 7.8 102350 90
2003-03-25 10:21:30 51°25.982 2°54.476 7.9 356 7.8 102350 90
2003-03-25 10:21:35 51°25.999 2°54.462 7.7 355 7.8 102350 90
2003-03-25 10:21:40 51°26.017 2°54.447 8 355 7.7 102350 90
2003-03-25 10:21:45 51°26.034 2°54.433 8.2 356 7.7 102350 90
2003-03-25 10:21:50 51°26.052 2°54.419 8.3 356 7.8 102350 90
2003-03-25 10:21:55 51°26.07 2°54.404 8 357 7.8 102350 90
2003-03-25 10:22:00 51°26.088 2°54.39 8 358 7.8 102350 90
2003-03-25 10:22:05 51°26.105 2°54.375 7.9 356 7.8 102350 90
2003-03-25 10:22:10 51°26.123 2°54.361 7.9 358 7.8 102350 90
2003-03-25 10:22:15 51°26.14 2°54.346 8.4 357 7.8 102350 90
2003-03-25 10:22:21 51°26.161 2°54.328 7.8 357 7.8 102350 90
2003-03-25 10:22:25 51°26.176 2°54.317 7.9 357 7.8 102350 90
2003-03-25 10:22:37 51°26.226 2°54.292 7.9 358 7.8 102350 90
2003-03-25 10:22:41 51°26.241 2°54.281 7.7 356 7.8 102350 90
2003-03-25 10:22:46 51°26.259 2°54.267 8.2 357 7.8 102350 90
2003-03-25 10:22:51 51°26.277 2°54.252 7.8 357 7.8 102350 90
2003-03-25 10:22:55 51°26.291 2°54.242 7.8 358 7.8 102350 90
2003-03-25 10:23:06 51°26.332 2°54.212 7.3 357 7.8 102350 90
2003-03-25 10:23:10 51°26.343 2°54.197 7.3 356 7.8 102350 90
2003-03-25 10:23:15 51°26.362 2°54.185 7.4 358 7.8 102350 90
2003-03-25 10:23:19 51°26.377 2°54.174 7.8 357 7.8 102350 90
2003-03-25 10:23:25 51°26.397 2°54.155 7.7 357 7.8 102350 90
2003-03-25 10:23:30 51°26.415 2°54.141 7.5 357 7.8 102350 90
2003-03-25 10:23:35 51°26.432 2°54.127 7.7 357 7.8 102350 90
2003-03-25 10:23:40 51°26.45 2°54.114 7.5 357 7.8 102350 90
2003-03-25 10:23:45 51°26.468 2°54.099 7.8 356 7.8 102350 90
2003-03-25 10:23:50 51°26.486 2°54.086 7.3 357 7.8 102350 90
2003-03-25 10:23:55 51°26.504 2°54.071 7.6 357 7.8 102350 90
2003-03-25 10:23:59 51°26.518 2°54.06 7.5 357 7.8 102350 90
2003-03-25 10:24:06 51°26.541 2°54.038 7.6 357 7.8 102350 90
2003-03-25 10:24:10 51°26.555 2°54.027 7.8 357 7.8 102350 90
2003-03-25 10:24:15 51°26.573 2°54.013 7.7 355 7.8 102350 90
2003-03-25 10:24:20 51°26.591 2°54 7.3 356 7.8 102360 90
2003-03-25 10:24:25 51°26.608 2°53.985 7.7 356 7.8 102360 90
2003-03-25 10:24:30 51°26.624 2°53.97 7.5 357 7.8 102350 90
2003-03-25 10:24:35 51°26.642 2°53.955 7.3 356 7.8 102350 90
2003-03-25 10:24:40 51°26.659 2°53.94 7.4 356 7.8 102350 90
2003-03-25 10:24:45 51°26.676 2°53.926 7.6 355 7.8 102350 90
2003-03-25 10:24:50 51°26.693 2°53.911 7.7 356 7.8 102350 89
2003-03-25 10:24:55 51°26.71 2°53.896 7.6 355 7.8 102350 89
2003-03-25 10:24:59 51°26.724 2°53.885 8 355 7.8 102360 89
2003-03-25 10:25:05 51°26.745 2°53.867 7.9 356 7.8 102360 89
2003-03-25 10:25:10 51°26.763 2°53.853 7.7 357 7.8 102350 89
2003-03-25 10:25:15 51°26.78 2°53.838 7.7 356 7.8 102350 89
2003-03-25 10:25:19 51°26.794 2°53.826 8.1 356 7.8 102350 89
2003-03-25 10:25:26 51°26.818 2°53.805 7.9 356 7.8 102350 89
2003-03-25 10:25:30 51°26.83 2°53.796 7.9 356 7.7 102350 89
2003-03-25 10:25:35 51°26.846 2°53.781 8 355 7.7 102350 89
2003-03-25 10:25:39 51°26.862 2°53.769 8 355 7.7 102350 89
2003-03-25 10:25:45 51°26.886 2°53.755 8.2 355 7.7 102350 89
2003-03-25 10:25:50 51°26.905 2°53.742 7.9 354 7.7 102360 89
2003-03-25 10:25:55 51°26.923 2°53.728 8.1 356 7.7 102360 89
2003-03-25 10:25:59 51°26.938 2°53.717 7.7 352 7.7 102360 89
2003-03-25 10:26:05 51°26.96 2°53.701 7.9 355 7.7 102360 89
2003-03-25 10:26:10 51°26.978 2°53.687 8.1 354 7.7 102350 89
2003-03-25 10:26:15 51°26.996 2°53.673 7.8 354 7.7 102350 89
2003-03-25 10:26:19 51°27.01 2°53.661 7.8 355 7.7 102360 89
2003-03-25 10:26:25 51°27.031 2°53.643 8 354 7.7 102360 89
2003-03-25 10:26:30 51°27.049 2°53.629 7.8 355 7.7 102350 89
2003-03-25 10:26:35 51°27.067 2°53.615 7.8 354 7.7 102350 89
2003-03-25 10:26:39 51°27.081 2°53.604 7.6 356 7.7 102350 89
2003-03-25 10:26:45 51°27.103 2°53.586 7.8 356 7.7 102350 89
2003-03-25 10:26:50 51°27.121 2°53.572 7.7 354 7.7 102350 89
2003-03-25 10:26:55 51°27.139 2°53.558 7.9 357 7.7 102350 89
2003-03-25 10:26:59 51°27.153 2°53.546 7.7 356 7.7 102350 89
2003-03-25 10:27:05 51°27.175 2°53.528 7.9 355 7.7 102350 89
2003-03-25 10:27:10 51°27.193 2°53.514 8 356 7.7 102350 89
2003-03-25 10:27:15 51°27.211 2°53.5 8 355 7.7 102350 89
2003-03-25 10:27:20 51°27.229 2°53.486 7.7 357 7.7 102350 89
2003-03-25 10:27:25 51°27.246 2°53.471 7.9 355 7.7 102350 89
2003-03-25 10:27:30 51°27.264 2°53.456 7.8 354 7.7 102350 89
2003-03-25 10:27:35 51°27.281 2°53.442 7.8 356 7.7 102350 89
2003-03-25 10:27:39 51°27.295 2°53.43 7.6 356 7.7 102350 89
2003-03-25 10:27:45 51°27.317 2°53.412 7.4 356 7.7 102350 89
2003-03-25 10:27:50 51°27.335 2°53.399 7.6 356 7.7 102360 89
2003-03-25 10:27:55 51°27.353 2°53.385 7.5 354 7.7 102360 89
2003-03-25 10:28:00 51°27.37 2°53.37 7.6 356 7.7 102350 89
2003-03-25 10:28:06 51°27.392 2°53.354 7.9 355 7.7 102350 89
2003-03-25 10:28:10 51°27.406 2°53.342 7.8 356 7.7 102360 89
2003-03-25 10:28:15 51°27.423 2°53.327 7.8 355 7.7 102360 89
2003-03-25 10:28:20 51°27.441 2°53.312 7.8 354 7.7 102360 89
2003-03-25 10:28:25 51°27.458 2°53.298 7.8 357 7.7 102360 89
2003-03-25 10:28:30 51°27.475 2°53.282 7.7 355 7.7 102350 89
2003-03-25 10:28:35 51°27.493 2°53.268 7.9 356 7.7 102350 89
2003-03-25 10:28:40 51°27.51 2°53.253 7.6 355 7.7 102350 89
2003-03-25 10:28:45 51°27.527 2°53.238 7.9 354 7.7 102350 89
2003-03-25 10:28:50 51°27.545 2°53.224 7.9 356 7.7 102350 89
2003-03-25 10:28:55 51°27.563 2°53.21 7.7 355 7.7 102350 89
2003-03-25 10:29:00 51°27.58 2°53.195 7.6 357 7.7 102360 89
2003-03-25 10:29:05 51°27.598 2°53.181 7.8 354 7.7 102360 89
2003-03-25 10:29:10 51°27.615 2°53.166 7.5 359 7.7 102350 89
2003-03-25 10:29:15 51°27.633 2°53.151 7.4 354 7.7 102350 89
2003-03-25 10:29:21 51°27.653 2°53.132 7.5 354 7.7 102350 89
2003-03-25 10:29:25 51°27.665 2°53.117 7.3 352 7.7 102350 89
2003-03-25 10:29:30 51°27.681 2°53.099 7.4 356 7.7 102360 90
2003-03-25 10:29:35 51°27.697 2°53.078 7.5 354 7.7 102360 90
2003-03-25 10:29:39 51°27.709 2°53.062 7.3 358 7.7 102350 90
2003-03-25 10:29:45 51°27.727 2°53.036 7.3 355 7.7 102350 90
2003-03-25 10:29:50 51°27.741 2°53.013 7.4 359 7.7 102350 90
2003-03-25 10:29:55 51°27.753 2°52.989 7.6 352 7.7 102350 90
2003-03-25 10:29:59 51°27.764 2°52.97 7.3 359 7.7 102350 90
2003-03-25 10:30:05 51°27.778 2°52.939 7.4 355 7.7 102350 90
2003-03-25 10:30:10 51°27.79 2°52.913 7.3 355 7.7 102350 90
2003-03-25 10:30:15 51°27.801 2°52.886 7.6 357 7.7 102350 90
2003-03-25 10:30:19 51°27.808 2°52.863 7.4 352 7.7 102350 90
2003-03-25 10:30:25 51°27.819 2°52.829 7.5 356 7.7 102350 90
2003-03-25 10:30:30 51°27.828 2°52.8 7.5 352 7.7 102350 90
2003-03-25 10:30:35 51°27.835 2°52.77 7.7 353 7.7 102350 90
2003-03-25 10:30:40 51°27.841 2°52.739 7.7 355 7.7 102350 90
2003-03-25 10:30:45 51°27.845 2°52.707 7.5 351 7.7 102350 90
2003-03-25 10:30:50 51°27.848 2°52.676 7.7 353 7.8 102350 90
2003-03-25 10:30:55 51°27.85 2°52.644 7.3 351 7.8 102350 90
2003-03-25 10:30:59 51°27.852 2°52.618 7.6 353 7.8 102350 90
2003-03-25 10:31:05 51°27.854 2°52.58 7.5 351 7.8 102350 90
2003-03-25 10:31:10 51°27.855 2°52.547 7.4 353 7.8 102350 90
2003-03-25 10:31:15 51°27.855 2°52.515 7.6 352 7.8 102350 90
2003-03-25 10:31:19 51°27.856 2°52.489 7.8 353 7.8 102350 90
2003-03-25 10:31:25 51°27.857 2°52.451 7.7 354 7.8 102350 90
2003-03-25 10:31:30 51°27.857 2°52.419 7.5 350 7.8 102350 90
2003-03-25 10:31:35 51°27.857 2°52.387 7.6 352 7.8 102350 90
2003-03-25 10:31:39 51°27.856 2°52.362 7.3 353 7.8 102350 90
2003-03-25 10:31:45 51°27.854 2°52.323 7.7 354 7.8 102350 90
2003-03-25 10:31:49 51°27.852 2°52.297 7.6 353 7.8 102350 90
2003-03-25 10:31:55 51°27.849 2°52.258 7.5 350 7.8 102350 90
2003-03-25 10:31:59 51°27.847 2°52.232 7.5 354 7.8 102350 90
2003-03-25 10:32:05 51°27.843 2°52.193 7.4 356 7.8 102350 90
2003-03-25 10:32:10 51°27.84 2°52.16 7.4 352 7.8 102350 90
2003-03-25 10:32:15 51°27.837 2°52.128 7.7 354 7.8 102350 90
2003-03-25 10:32:21 51°27.833 2°52.089 7.7 357 7.8 102350 90
2003-03-25 10:32:25 51°27.83 2°52.064 7.6 354 7.8 102350 90
2003-03-25 10:32:30 51°27.828 2°52.031 7.7 354 7.8 102350 90
2003-03-25 10:32:35 51°27.824 2°52 7.4 352 7.8 102350 90
2003-03-25 10:32:40 51°27.821 2°51.968 7.5 355 7.8 102350 90
2003-03-25 10:32:45 51°27.818 2°51.935 7.5 352 7.8 102350 90
2003-03-25 10:32:49 51°27.815 2°51.909 7.6 355 7.8 102350 90
2003-03-25 10:32:55 51°27.812 2°51.871 7.7 350 7.8 102350 90
2003-03-25 10:32:59 51°27.811 2°51.845 7.4 354 7.8 102350 90